Back to catalog

FLOCK 4Q 31

AliveSciencePO
NORAD 58285·PAYLOAD·🇺🇸 United States

Launched Nov 11, 2023 from Vandenberg Space Force Base

Loading…

Next Passes (next 24 hours)

TLE

FreshSource: Space-Track

Epoch: Sep 14, 2026, 00:05 UTC

1 58285U 23174AF  26257.00358691  .00342605  00000-0  14882-2 0  9994
2 58285  97.3824 353.8670 0006681 230.6304 129.4374 15.83925314159707

Track FLOCK 4Q 31 in real time with AllMySat

Download on the App Store